Weather in Tver

Russia / Tver Oblast     56°51′34″N   35°54′42″E
temp.,
°C
wind,
m/s
gust,
m/s
humid.,
%
clouds,
%
prec.,
mm/h
press.,
hPa
HPBL,
m
7 may, fri
fri700:00+5sw5128913 0.0 1005600
03:00+5wsw51189100 0.0 1007803
06:00+4ssw410926 0.0 1007533
09:00+8wsw58644 0.0 1009988
12:00+11sw6944100 0.1 10092547
15:00+12sw6942100 0.1 10092364
18:00+12sw5852100 0.1 10091426
21:00+7s368295 0.1 1010107
8 may, sat
sat800:00+6sse41279100 0.0 1009286
03:00+8s51279100 0.1 1008891
06:00+7sse71491100 2.8 10051011
09:00+8sse51192100 3.8 1005811
12:00+9sse4790100 0.1 1004641
15:00+8se2394100 1.8 1004281
18:00+8nnw5993100 0.6 1004447
21:00+7nnw51187100 0.8 1005644
9 may, sun
sun900:00+5nnw51389100 0.0 1006747
03:00+4nnw71288100 0.0 1008718
06:00+4nnw71483100 0.1 1011897
09:00+4nnw61285100 0.1 1013902
12:00+10nnw7104969 0.0 10151882
15:00+12nnw794083 0.0 10162461
18:00+11nnw58475 0.0 10191544
21:00+6nw34660 0.0 102256
10 may, mon
mon1000:00+4wnw35765 0.0 102476
03:00+3wnw22735 0.0 102712
06:00+4wsw11695 0.0 102814
09:00+11sw23515 0.0 1029445
12:00+14sw234112 0.0 10291434
15:00+16sw23415 0.0 10281493
18:00+16ssw22515 0.0 10281045
21:00+10s22704 0.0 102910
11 may, tue
tue1100:00+8ssw11745 0.0 103010
03:00+7sse117933 0.0 103110
06:00+8sse117683 0.0 103116
09:00+13se2354100 0.0 1031399
12:00+17ese344650 0.0 10311060
15:00+19ese3443100 0.0 10291166
18:00+18ese3557100 0.0 1029304
21:00+12ese3578100 0.0 102980